Location: Étouvelles
(49.5207°N, 3.5808°E)
Time: 14:10:07
(UTC+00:00)

Cosmos 2266 Rocket - Pass Details

Date: 03 February 2023
Orbit: 933 x 1008 km, 82.9° (Epoch: 22 March)

Event Time Altitude Azimuth Distance (km) Brightness Sun altitude
Rises 17:35:44 0° 348° (NNW) 3,718 7.0 -8.7°
Reaches altitude 10° 17:38:18 10° 346° (NNW) 2,755 6.4 -9.1°
Maximum altitude 17:44:33 67° 266° (W) 1,050 4.5 -10.1°
Drops below altitude 10° 17:50:38 10° 185° (S) 2,684 6.5 -11.0°
Sets 17:53:06 0° 183° (S) 3,615 7.2 -11.4°
